This demonstration page uses our WeatherBlox Daily Observations layout. Learn more.

Left ArrowRight Arrow

39.01783, -85.05884

Hourly Observations for December 2, 2016

Temp ( °F °C ) Dew Point ( °F °C ) Humidity (%) Winds ( mph kmh ) Pressure ( in mb ) Visibility ( mi km ) Precip ( " mm )
12:29 am 00:29 Cloudy 34 1.1 29 -1.7 82 82 W 6 9 30.09 1019 10 16 N/A
12:52 am 00:52 Cloudy 34 1.1 29 -1.7 82 82 SW 3 6 30.06 1018 10 16 N/A
1:52 am 01:52 Cloudy 35 1.7 29 -1.7 78 78 WSW 5 7 30.08 1019 10 16 N/A
2:52 am 02:52 Cloudy 36 2.2 30 -1.1 79 79 WSW 5 7 30.09 1019 10 16 N/A
3:52 am 03:52 Cloudy 36 2.2 30 -1.1 79 79 W 10 17 30.10 1019 10 16 N/A
4:52 am 04:52 Cloudy 36 2.2 30 -1.1 79 79 WNW 6 9 30.11 1020 10 16 N/A
5:52 am 05:52 Cloudy 36 2.2 30 -1.1 79 79 WNW 7 11 30.13 1020 10 16 N/A
6:52 am 06:52 Cloudy 36 2.2 30 -1.1 79 79 W 9 15 30.15 1021 10 16 N/A
7:52 am 07:52 Cloudy 36 2.2 29 -1.7 76 76 NW 12 19 30.16 1021 10 16 N/A
8:52 am 08:52 Cloudy 37 2.8 29 -1.7 73 73 WNW 13 20 30.18 1022 10 16 N/A
9:52 am 09:52 Cloudy 37 2.8 29 -1.7 73 73 WNW 10 17 30.19 1022 9 14 N/A
10:52 am 10:52 Cloudy 37 2.8 30 -1.1 76 76 SW 6 9 30.21 1023 9 14 N/A
11:08 am 11:08 Cloudy 37 3 30 -1 75 75 SW 8 13 30.24 1024 10 16 N/A
11:52 am 11:52 Cloudy 38 3.3 30 -1.1 73 73 WSW 8 13 30.22 1023 10 16 N/A
12:52 pm 12:52 Cloudy 39 3.9 30 -1.1 70 70 W 8 13 30.21 1023 10 16 N/A
1:21 pm 13:21 Cloudy 39 4 30 -1 70 70 WSW 8 13 30.24 1024 10 16 N/A
1:52 pm 13:52 Cloudy 39 3.9 30 -1.1 70 70 WSW 9 15 30.20 1023 10 16 N/A
2:36 pm 14:36 Cloudy 39 4 30 -1 70 70 W 9 15 30.21 1023 10 16 N/A
2:52 pm 14:52 Cloudy 39 3.9 29 -1.7 67 67 W 10 17 30.21 1023 10 16 N/A
3:14 pm 15:14 Cloudy 39 4 30 -1 70 70 W 9 15 30.24 1024 10 16 N/A
3:52 pm 15:52 Cloudy 40 4.4 30 -1.1 68 68 WSW 8 13 30.24 1024 10 16 N/A
4:52 pm 16:52 Cloudy 39 3.9 30 -1.1 70 70 W 9 15 30.25 1024 10 16 N/A
5:52 pm 17:52 Cloudy 39 3.9 30 -1.1 70 70 W 9 15 30.26 1025 10 16 N/A
6:52 pm 18:52 Cloudy 40 4.4 30 -1.1 68 68 WNW 12 19 30.28 1025 10 16 N/A
7:52 pm 19:52 Cloudy 39 3.9 30 -1.1 70 70 W 10 17 30.29 1026 10 16 N/A
8:15 pm 20:15 Cloudy 39 3.9 30 -1.1 70 70 WNW 7 11 30.33 1027 10 16 N/A
8:52 pm 20:52 Cloudy 39 3.9 31 -0.6 73 73 WNW 9 15 30.30 1026 10 16 N/A
9:52 pm 21:52 Cloudy 39 3.9 32 undefined 76 76 N N/A 30.31 1027 10 16 N/A
10:52 pm 22:52 Cloudy 38 3.3 32 undefined 79 79 NW 6 9 30.31 1026 10 16 N/A
11:52 pm 23:52 Cloudy 37 3 34 1 87 87 NW 6 9 30.36 1028 9 14 N/A

Powered by AerisWeather